Lapse_Rate
1.6 2.8 2.6 5.2 4.0 5.8 6.5 5.4 4.9 5.8 6.2 6.2 5.7 4.9 4.7 4.5 4.4 4.2 4.1 4.2 4.3 4.5 5.6 6.4 6.7 5.2 4.7 4.4 4.1 4.0 3.6 3.7
2.2 3.2 2.9 2.5 3.7 4.9 6.3 7.8 6.0 6.1 5.9 5.4 5.3 4.7 4.6 4.4 4.4 4.2 4.2 4.4 4.6 4.9 5.8 6.1 6.4 5.2 5.0 4.7 4.4 4.2 4.1 4.1
3.1 2.7 1.9 2.7 2.6 4.0 3.1 6.2 5.6 5.1 4.5 4.8 4.8 4.2 4.2 4.2 4.3 4.4 4.4 4.6 4.8 4.8 5.5 6.2 6.2 4.9 4.5 4.4 4.1 3.8 3.8 3.8
3.3 2.5 2.9 3.7 4.3 5.0 4.1 6.1 4.9 4.0 3.7 3.3 3.9 3.9 4.0 3.9 4.3 4.4 4.3 4.4 4.7 5.1 5.3 5.6 5.5 5.0 4.5 4.3 3.7 3.7 3.5 3.9
3.9 3.5 3.6 3.6 4.5 5.3 6.1 4.0 4.8 3.7 3.3 3.6 3.8 3.6 3.5 3.5 4.0 3.6 4.3 4.5 4.2 4.7 4.7 5.0 5.1 4.8 4.0 3.4 3.5 3.4 3.5 4.1
4.3 3.9 4.0 4.4 5.4 5.0 5.0 4.9 4.8 4.3 4.2 3.9 3.6 3.1 2.9 2.7 3.3 3.7 3.8 4.0 3.6 4.3 4.2 4.6 4.8 5.2 4.6 3.4 3.4 3.1 3.4 4.0
4.0 4.0 3.8 3.6 4.4 4.7 4.5 4.3 4.3 4.5 4.5 4.3 3.8 3.3 3.2 2.4 2.4 3.2 3.6 4.1 4.0 3.6 4.4 4.7 4.6 4.8 4.6 4.1 3.3 2.9 3.1 3.4
3.7 4.3 4.1 4.2 3.9 4.1 3.9 4.8 4.7 4.8 4.6 3.8 3.4 3.3 2.9 3.5 2.4 2.7 3.8 4.5 4.2 4.5 4.5 4.0 4.0 4.6 4.4 4.9 3.9 3.4 3.3 3.3
3.9 3.6 4.2 3.8 4.5 3.8 4.3 4.7 5.6 5.4 4.8 4.6 4.0 4.0 3.6 3.0 2.6 2.7 4.4 4.9 4.4 4.6 4.5 4.1 3.4 4.3 4.3 4.6 4.2 4.1 3.6 3.8
4.3 4.5 4.4 4.2 4.6 4.8 5.1 5.2 5.3 5.2 4.8 5.2 5.3 4.9 4.9 3.9 3.2 3.7 4.7 4.4 4.3 4.0 3.3 2.9 2.9 3.1 3.1 3.0 3.8 4.2 4.3 4.5
4.5 4.6 5.3 5.8 5.6 6.1 5.9 5.3 5.6 5.4 5.1 5.0 5.0 4.7 5.2 4.5 4.4 4.4 4.5 3.7 3.6 3.8 3.0 3.4 3.2 3.0 3.2 2.3 2.6 3.0 4.3 4.5
4.9 5.0 5.5 5.0 4.8 5.0 5.7 4.4 4.3 4.7 4.6 4.4 4.8 5.6 5.3 5.0 4.6 3.8 3.7 3.7 3.3 3.4 3.7 3.0 3.6 3.3 5.6 4.4 2.3 2.5 3.5 3.5
5.5 5.2 4.6 4.7 4.7 5.5 5.9 6.0 4.7 4.3 4.0 4.6 5.7 5.7 5.7 4.4 3.6 3.3 4.1 3.6 3.3 2.8 3.1 3.3 2.9 3.1 4.3 4.9 3.9 2.7 2.6 2.3
4.5 4.2 4.5 5.6 5.5 5.6 5.5 4.4 3.6 3.8 4.2 4.8 5.8 5.7 5.8 4.7 3.8 3.2 3.1 2.6 3.2 2.8 3.0 2.6 3.2 3.4 4.3 4.9 5.2 4.4 3.6 3.2
4.7 4.6 4.3 4.8 4.9 4.8 4.2 4.2 4.6 4.2 4.9 4.8 4.0 4.6 5.1 5.0 4.2 3.8 3.9 3.5 3.2 2.7 2.7 3.1 3.4 3.7 4.7 5.3 4.7 5.2 4.0 3.5
4.4 4.4 4.4 4.8 4.6 5.3 5.5 6.2 6.5 6.6 6.0 5.5 3.2 4.0 4.1 4.5 4.4 4.0 3.3 3.5 2.7 2.2 2.0 2.6 3.6 3.9 2.9 2.4 2.3 3.7 3.9 5.0
4.3 4.8 4.5 4.6 4.9 4.7 4.9 5.5 5.6 5.4 4.7 3.9 3.3 3.3 4.5 4.4 4.4 3.7 3.3 3.0 2.8 2.7 1.8 2.5 2.7 3.0 3.1 1.6 2.0 2.4 3.3 3.8
3.7 4.3 4.2 4.5 4.7 4.7 4.7 4.6 4.8 5.0 4.6 4.2 4.1 3.4 3.6 3.7 3.9 3.5 2.7 2.5 2.1 1.8 2.0 2.1 2.3 2.5 2.6 2.1 2.6 3.1 3.6 3.5
3.3 3.8 4.3 4.7 4.8 4.9 4.9 4.9 4.8 4.3 4.1 3.9 3.9 3.7 3.5 3.3 2.6 2.6 2.6 2.7 2.3 1.5 1.7 2.0 1.8 2.4 2.0 1.6 2.2 2.7 2.6 2.6
4.1 4.3 4.0 4.5 4.6 4.7 4.8 4.9 5.1 5.4 4.8 4.2 3.6 3.9 3.8 3.2 2.2 2.3 2.3 2.2 1.6 1.4 2.2 2.0 1.4 1.1 1.4 1.5 1.3 2.2 2.2 2.8
Wind_Speed
21 26 29 25 18 25 26 30 30 29 30 31 28 29 28 28 26 25 23 20 18 18 21 23 23 22 24 24 24 23 21 18
5 16 26 29 23 29 17 20 28 31 32 30 27 29 26 26 24 25 23 19 18 18 21 22 25 23 30 27 22 21 22 21
6 7 24 27 25 22 24 4 23 30 30 30 25 22 22 19 21 23 23 21 17 19 21 20 24 25 26 27 20 17 18 19
8 10 14 23 22 24 24 18 14 20 22 22 21 20 19 20 20 22 21 22 19 19 16 14 18 22 18 21 18 18 15 18
8 10 15 18 18 17 14 14 17 19 19 20 20 19 17 16 14 17 16 22 16 16 12 13 11 17 17 19 18 17 19 16
12 11 10 15 17 15 14 12 14 15 22 21 18 14 12 12 13 16 15 17 15 12 13 10 10 13 18 16 14 16 16 17
10 12 10 10 10 12 9 6 11 15 17 18 20 16 10 11 11 13 17 15 14 13 11 10 9 11 11 14 11 13 14 14
10 12 9 11 7 8 5 7 15 16 14 16 18 16 13 11 11 10 12 15 15 16 12 10 8 9 7 10 10 14 13 13
7 12 9 11 8 7 6 12 16 13 12 16 19 18 15 12 10 8 12 14 14 11 8 9 6 6 6 7 11 12 11 11
7 9 10 9 10 6 7 8 11 11 15 15 18 18 18 14 8 8 14 11 14 9 6 3 4 4 4 4 7 11 12 11
8 10 13 11 6 9 6 5 6 9 14 14 17 17 18 15 11 11 14 12 9 7 2 4 4 3 4 4 6 7 11 12
9 7 11 9 5 4 2 1 2 2 2 7 9 13 15 15 12 12 14 7 4 3 4 3 3 4 5 5 5 7 10 10
11 10 7 8 6 8 8 7 2 1 3 6 12 15 16 14 9 8 11 7 7 7 4 5 4 2 3 1 2 4 4 4
10 10 10 9 8 7 6 4 3 2 5 7 15 18 18 13 9 5 8 4 5 6 5 2 2 4 3 2 2 3 2 4
14 13 12 11 11 7 4 2 3 3 6 6 9 17 16 16 15 10 9 6 6 6 6 7 4 2 2 3 2 4 1 1
15 15 16 14 13 12 13 11 11 10 9 7 5 14 14 16 15 14 8 8 6 7 4 5 4 4 2 4 4 2 3 1
14 15 16 17 15 15 12 11 9 7 6 7 7 6 14 16 17 14 8 6 5 7 6 5 4 4 3 3 2 2 2 2
16 18 17 18 17 16 16 14 11 9 8 8 8 7 8 13 15 12 10 7 8 6 5 7 6 4 3 3 3 3 3 3
17 19 19 19 18 17 16 15 15 11 12 11 10 8 5 9 8 8 6 7 7 7 6 6 7 7 6 5 3 4 3 3
21 21 20 20 19 19 16 18 11 12 13 11 9 10 10 10 11 9 10 10 8 8 4 5 6 5 7 6 4 3 3 2
Wind_Direction
94 105 84 60 353 138 130 133 142 138 135 133 127 120 120 117 115 112 107 104 99 95 96 90 84 94 116 111 108 108 107 104
143 127 117 88 77 52 63 141 135 134 128 120 115 115 115 115 115 112 109 106 100 96 92 80 77 86 124 120 115 113 111 110
108 117 110 120 121 149 126 184 114 114 117 115 112 113 114 114 121 118 117 111 103 92 83 71 77 83 115 121 116 123 117 118
112 117 127 133 133 138 140 179 123 116 120 119 118 123 124 125 125 119 115 112 105 91 72 63 76 86 118 121 124 130 126 124
123 125 132 137 140 152 169 144 135 127 120 121 127 121 123 123 126 119 122 112 105 94 83 91 87 90 107 116 127 133 134 134
139 146 144 146 154 158 154 142 139 133 135 132 132 126 128 129 137 134 120 124 109 114 101 104 100 91 103 121 134 140 141 145
140 144 148 148 157 158 149 140 128 127 136 143 143 137 148 131 146 139 133 135 124 120 133 132 103 97 97 117 144 147 148 154
142 150 145 145 164 153 127 128 137 136 142 145 135 139 145 155 137 144 148 151 149 147 155 131 126 122 116 122 139 154 162 165
140 138 136 140 148 129 144 140 142 136 138 141 133 146 155 148 156 147 178 163 147 149 141 136 139 159 157 149 133 157 169 173
145 145 143 142 139 141 125 115 120 127 140 151 151 160 155 159 149 177 185 167 160 169 154 151 172 182 163 174 160 158 167 181
133 148 145 139 131 130 133 112 115 131 148 160 149 157 175 167 183 187 181 163 164 167 156 152 171 190 189 178 190 181 179 178
144 148 136 133 129 113 128 17 14 146 124 142 166 190 190 185 177 169 163 160 165 168 162 183 164 179 194 193 199 200 196 181
168 161 156 151 153 159 179 192 245 302 221 198 211 210 204 189 175 163 174 177 183 177 165 189 214 152 113 289 209 222 228 219
179 176 171 181 172 178 185 179 230 227 240 222 223 215 200 191 184 186 184 164 167 180 173 137 185 185 161 125 200 324 279 223
186 185 183 186 187 175 172 133 283 221 234 233 217 208 199 196 195 177 199 169 193 193 181 172 188 179 182 147 141 200 347 155
190 187 189 193 190 189 192 198 203 214 221 230 223 209 207 202 200 196 189 190 187 192 180 180 146 179 106 83 87 166 152 283
192 191 195 198 195 196 196 203 210 212 213 216 223 212 211 209 207 202 202 196 194 191 170 179 174 160 153 155 154 158 121 140
192 193 200 201 198 201 202 207 213 214 214 218 224 214 210 209 208 204 197 182 183 179 168 179 177 144 142 159 174 162 181 155
194 195 201 201 203 206 211 217 219 218 211 211 208 207 205 209 193 189 183 190 183 164 168 171 164 173 167 165 173 187 149 149
196 197 203 205 206 212 216 222 227 224 221 219 213 212 214 195 192 185 181 178 181 168 161 159 154 152 165 180 169 150 125 124